Weather History for La Crosse, WI

Change the Weather History Date:

Monday, January 2, 2012

  Actual Average Record
Temperature  
Mean Temperature 17 °F 18 °F  
Max Temperature 24 °F 26 °F 51 °F (1998)
Min Temperature 9 °F 10 °F -26 °F (1879)
Degree Days  
Heating Degree Days 48 47  
Month to date heating degree days 85 94  
Since 1 July heating degree days 2523 2938  
Cooling Degree Days 0 0  
Month to date cooling degree days 0 0  
Year to date cooling degree days 0 0  
Moisture  
Dew Point 6 °F    
Average Humidity 59    
Maximum Humidity 73    
Minimum Humidity 45    
Precipitation  
Precipitation T in 0.04 in 0.59 in (1886)
Month to date precipitation 0.11 0.07  
Year to date precipitation 0.11 0.07  
Snow  
Snow T in 0.30 in 7.30 in (1999)
Month to date snowfall T 0.6  
Since 1 July snowfall 5.0 16.2  
Snow Depth 0.00 in    
Sea Level Pressure  
Sea Level Pressure 30.40 in    
Wind  
Wind Speed 18 mph (NNW)    
Max Wind Speed 33 mph    
Max Gust Speed 43 mph    
Visibility 10 miles    
Events      
T = Trace of Precipitation, MM = Missing Value Source: NWS Daily Summary

Daily Weather History Graph

Daily Weather History Graph

Search for Another Location

Airport:

Trip Planner

Search our weather history database for the weather conditions in past years. The results will help you decide how hot, cold, wet, or windy it might be!

Date:

Astronomy

Jan. 02, 2012 Rise Set
Actual Time 7:39 AM CST 4:38 PM CST
Civil Twilight 7:06 AM CST 5:11 PM CST
Nautical Twilight 6:30 AM CST 5:47 PM CST
Astronomical Twilight 5:55 AM CST 6:22 PM CST
Moon 12:00 PM CST (1/2) 1:26 AM CST (1/2)
Length of Visible Light 10h 04m
Length of Day
8h 59m
Waxing Gibbous, 64% of the Moon is Illuminated
Jan 2
Waxing Gibbous
Jan 9
Full
Jan 16
Last Quarter
Jan 23
New
Jan 30
First Quarter

Hourly Weather History & Observations

Time (CST) Temp. Windchill Dew Point Humidity Pressure Visibility Wind Dir Wind Speed Gust Speed Precip Events Conditions
12:53 AM 19.9 °F 3.9 °F 9.0 °F 62% 30.24 in 10.0 mi NW 20.7 mph 31.1 mph N/A   Overcast
1:53 AM 19.9 °F 2.5 °F 8.1 °F 60% 30.25 in 10.0 mi NW 25.3 mph 34.5 mph N/A   Overcast
2:53 AM 19.9 °F 3.9 °F 9.0 °F 62% 30.26 in 10.0 mi NW 20.7 mph 31.1 mph N/A   Overcast
3:53 AM 19.9 °F 3.5 °F 8.1 °F 60% 30.26 in 10.0 mi NW 21.9 mph 32.2 mph N/A   Overcast
4:53 AM 19.9 °F 2.8 °F 7.0 °F 57% 30.27 in 10.0 mi NNW 24.2 mph 34.5 mph N/A   Overcast
5:53 AM 19.0 °F 2.7 °F 6.1 °F 57% 30.29 in 10.0 mi NW 20.7 mph 32.2 mph N/A   Overcast
6:53 AM 19.0 °F 1.3 °F 3.9 °F 52% 30.30 in 10.0 mi NNW 25.3 mph 35.7 mph N/A   Overcast
7:53 AM 19.0 °F 2.7 °F 3.9 °F 52% 30.32 in 10.0 mi NNW 20.7 mph 29.9 mph N/A   Overcast
8:53 AM 19.4 °F 1.8 °F 5.0 °F 54% 30.30 in 10.0 mi NNW 25.3 mph 34.5 mph N/A   Overcast
9:53 AM 19.4 °F 2.1 °F 5.0 °F 54% 30.32 in 10.0 mi NNW 24.2 mph 33.4 mph N/A   Overcast
10:53 AM 19.9 °F 1.8 °F 6.1 °F 55% 30.40 in 10.0 mi NNW 27.6 mph 36.8 mph N/A   Overcast
11:53 AM 21.0 °F 5.4 °F 6.1 °F 53% 30.41 in 10.0 mi NNW 20.7 mph - N/A   Scattered Clouds
12:53 PM 23.0 °F 10.1 °F 7.0 °F 50% 30.41 in 10.0 mi NNW 15.0 mph - N/A   Scattered Clouds
1:53 PM 23.0 °F 8.0 °F 6.8 °F 50% 30.36 in 10.0 mi NW 20.7 mph 25.3 mph N/A   Partly Cloudy
2:53 PM 21.0 °F 5.7 °F 3.9 °F 48% 30.44 in 10.0 mi NNW 19.6 mph 24.2 mph N/A   Partly Cloudy
3:53 PM 21.0 °F 6.6 °F 5.0 °F 50% 30.47 in 10.0 mi NNW 17.3 mph - N/A   Clear
4:53 PM 19.0 °F 5.0 °F 6.1 °F 57% 30.49 in 10.0 mi NW 15.0 mph - N/A   Clear
5:53 PM 17.1 °F 2.5 °F 6.1 °F 62% 30.50 in 10.0 mi NNW 15.0 mph - N/A   Clear
6:53 PM 16.0 °F 2.3 °F 5.0 °F 62% 30.52 in 10.0 mi NNW 12.7 mph - N/A   Clear
7:53 PM 14.0 °F 2.9 °F 5.0 °F 67% 30.53 in 10.0 mi NNW 8.1 mph - N/A   Clear
8:53 PM 12.9 °F 1.6 °F 3.9 °F 67% 30.55 in 10.0 mi North 8.1 mph - N/A   Clear
9:53 PM 10.9 °F 2.9 °F 3.9 °F 73% 30.55 in 10.0 mi North 4.6 mph - N/A   Clear
10:53 PM 10.0 °F 1.8 °F 3.0 °F 73% 30.56 in 10.0 mi North 4.6 mph - N/A   Clear
11:53 PM 9.0 °F 0.6 °F 3.0 °F 77% 30.54 in 10.0 mi NNW 4.6 mph - N/A   Clear